Location: L�Ave Maria
(50.7161°N, 1.5911°E)
Time: 00:33:08
(UTC+00:00)

Cosmos 2219 Rocket - Pass Details

Date: 10 July 2020
Orbit: 827 x 847 km, 71.0° (Epoch: 03 August)

Event Time Altitude Azimuth Distance (km) Brightness Sun altitude
Rises 20:51:46 0° 205° (SSW) 3,357 5.1 -6.3°
Reaches altitude 10° 20:54:11 10° 205° (SSW) 2,429 4.4 -6.6°
Maximum altitude 20:59:46 84° 117° (ESE) 843 2.2 -7.2°
Drops below altitude 10° 21:05:25 10° 31° (NNE) 2,457 4.9 -7.8°
Sets 21:07:52 0° 31° (NNE) 3,398 5.6 -8.0°
